TIME,DELAY(SENSOR),PRES,T(CTD),SAL,OXYGEN,RAWTEMP,T(OPTODE),TCPHASE,TURBIDITY,TURBIDITY_GAIN,FLUOR,BETA,CDOM,CSC,CHECK
1349798934,8892,947.6699829101562000,6.8029999732971190,35.0819015502929700,226.1360015869140600,665.1563720703125000,6.7804641723632810,37.0676689147949200,15,3,50,88,64,15663,54061
1349799060,8892,936.4400024414062000,6.9857001304626465,35.0905990600585940,221.4263000488281200,659.3035278320312000,6.9742178916931150,37.2146797180175800,16,3,50,87,63,15672,42003
1349799185,8894,925.3699951171875000,7.2537999153137210,35.1001014709472660,214.9857025146484400,651.3812866210938000,7.2358360290527340,37.4264297485351560,16,3,50,86,64,15672,17823
1349799310,8892,914.3200073242188000,7.4060001373291020,35.1114997863769500,209.0475006103515600,646.6431274414062000,7.3919677734375000,37.6805610656738300,15,3,50,87,64,15668,30877
1349799436,8894,903.3099975585938000,7.5356998443603520,35.1142997741699200,205.0480957031250000,641.9088745117188000,7.5477118492126465,37.8289489746093750,16,3,52,85,64,15673,37195
1349799574,8892,890.2700195312500000,7.7614002227783200,35.1279983520507800,200.2716064453125000,635.4016723632812000,7.7613739967346190,37.9968681335449200,16,3,50,84,63,15672,15510
1349799678,8892,879.2000122070312000,7.8442001342773440,35.1332015991210940,197.9243927001953000,633.1865844726562000,7.8340001106262210,38.0997390747070300,16,3,52,86,64,15674,33918
1349799800,8891,867.0200195312500000,8.1723003387451170,35.1493988037109400,192.5482025146484400,623.2415161132812000,8.1594085693359380,38.2565193176269500,15,3,50,84,63,15680,41554
1349799921,8894,856.2399902343750000,8.3399000167846680,35.1594009399414060,188.5149993896484400,617.8629150390625000,8.3349590301513670,38.4177894592285160,16,3,51,86,62,15676,33871
1349800048,8892,845.4299926757812000,8.4759998321533200,35.1656990051269500,186.0890960693359400,613.7028198242188000,8.4705295562744140,38.5008201599121100,16,3,50,84,63,15675,20245
1349800187,8892,833.8499755859375000,8.7309999465942380,35.1814994812011700,180.8601074218750000,606.2462768554688000,8.7130718231201170,38.7160606384277340,16,3,51,86,64,15673,2953
1349800314,8893,822.9199829101562000,8.9945001602172850,35.2018013000488300,177.2424926757812500,597.6931762695312000,8.9905853271484380,38.8117904663085940,16,3,50,85,62,15676,47825
1349800441,8892,812.5000000000000000,9.2041997909545900,35.2210006713867200,175.2015075683593800,591.5657958984375000,9.1889457702636720,38.8455314636230500,16,3,50,84,64,15672,45526
1349800599,8892,798.9500122070312000,9.3699998855590820,35.2291984558105500,171.9938964843750000,585.9284057617188000,9.3711166381835940,38.9727592468261700,15,3,50,85,63,15672,63305
1349800715,8893,787.4600219726562000,9.6794004440307620,35.2565994262695300,169.7395019531250000,576.1038208007812000,9.6878643035888670,38.9632301330566400,15,3,50,83,63,15673,63793
1349800830,8892,776.4500122070312000,9.9926004409790040,35.2896995544433600,168.2362060546875000,566.3933715820312000,10.0000400543212890,38.9058113098144500,16,3,50,84,62,15670,64197
1349800957,8893,764.5599975585938000,10.3579998016357420,35.3298988342285160,167.4145965576172000,554.9031982421875000,10.3683099746704100,38.7722587585449200,16,3,50,85,61,15673,8835
1349801084,8893,752.9699707031250000,10.6991996765136720,35.3717994689941400,168.2377014160156200,543.9835815429688000,10.7172203063964840,38.5298614501953100,15,3,50,83,62,15676,18128
1349801199,8891,742.4699707031250000,10.9710998535156250,35.4118995666503900,171.0668029785156200,535.5925292968750000,10.9846401214599610,38.1878089904785160,16,3,51,83,61,15675,8281
1349801326,8891,730.6199951171875000,11.2537002563476560,35.4505996704101560,173.6114044189453000,527.3140869140625000,11.2479000091552730,37.8729782104492200,15,3,50,83,62,15676,49277
1349801441,8894,719.6699829101562000,11.5030002593994140,35.4835014343261700,175.5048065185547000,519.0903930664062000,11.5088701248168950,37.6058387756347660,16,3,50,84,61,15677,56749
1349801556,8893,708.8800048828125000,11.7152996063232420,35.5052986145019500,175.1016998291015600,512.2487792968750000,11.7255697250366210,37.5233802795410160,15,3,50,85,61,15670,58481
1349801669,8892,698.4699707031250000,12.0008001327514650,35.5438995361328100,177.3377990722656200,503.5864868164062500,11.9994201660156250,37.2292289733886700,15,3,50,84,61,15676,64076
1349801797,8894,686.9199829101562000,12.1473999023437500,35.5638999938964840,178.3045959472656200,497.7603149414062500,12.1833000183105470,37.0696601867675800,16,3,50,84,60,15674,53449
1349801925,8892,675.9199829101562000,12.4395999908447270,35.5952987670898440,177.8773956298828000,489.6758117675781000,12.4380397796630860,36.9690589904785160,15,3,50,84,60,15674,18887
1349802053,8892,665.1799926757812000,12.6325998306274410,35.6226005554199200,177.3610992431640600,483.4960937500000000,12.6324501037597660,36.9062385559082000,15,3,50,83,61,15673,44190
1349802181,8892,654.6199951171875000,12.9092998504638670,35.6698989868164060,183.6959075927734400,474.6182861328125000,12.9112701416015620,36.3425407409668000,15,3,50,84,60,15672,25960
1349802321,8893,643.4400024414062000,13.2679004669189450,35.7253990173339840,191.0370025634765600,462.4885864257812500,13.2913904190063480,35.6831092834472660,16,3,50,82,59,15679,11466
1349802457,8892,631.5900268554688000,13.6028003692626950,35.7752990722656250,194.3132934570312500,452.1111145019531000,13.6158504486083980,35.3192787170410160,15,3,50,82,58,15688,54235
1349802561,8893,621.2899780273438000,13.8032999038696290,35.8078994750976560,198.1714935302734400,445.8916015625000000,13.8099899291992190,34.9907798767089840,16,3,50,82,60,15688,52314
1349802676,8892,609.7600097656250000,14.0831003189086910,35.8488006591796900,200.7039031982422000,437.2253112792969000,14.0801296234130860,34.7086105346679700,15,3,50,82,59,15686,1090
1349802810,8893,596.9400024414062000,14.2519998550415040,35.8664016723632800,190.2998962402343800,431.3510131835937500,14.2629899978637700,35.2517318725585940,16,3,50,84,58,15681,1090
1349802944,8892,586.3200073242188000,14.5114002227783200,35.9146995544433600,196.7339019775390600,422.9659118652344000,14.5236902236938480,34.7303581237793000,16,3,50,84,58,15681,15636
1349803101,8892,572.7100219726562000,14.7068996429443360,35.9494018554687500,203.0588989257812500,416.4193115234375000,14.7269697189331050,34.2592811584472660,15,3,50,84,58,15682,20908
1349803205,8893,562.1799926757812000,14.8964996337890620,35.9803009033203100,202.2153015136718800,409.1058959960937500,14.9538002014160160,34.2002410888671900,15,3,50,84,58,15684,4882
1349803327,8892,550.3800048828125000,15.1154003143310550,36.0161018371582000,200.3934020996093800,403.3970031738281000,15.1306800842285160,34.2220497131347660,16,3,50,84,58,15683,33208
1349803460,8893,539.4899902343750000,15.2967996597290040,36.0460014343261700,205.0671997070312500,397.6221008300781000,15.3094501495361330,33.8670387268066400,16,3,50,85,57,15680,49037
1349803616,8892,526.2600097656250000,15.7012996673583980,36.1242980957031250,209.9900054931640600,384.1051940917969000,15.7272901535034180,33.3948402404785160,16,3,50,84,56,15683,27127
1349803732,8892,515.0399780273438000,15.9357995986938480,36.1652984619140600,211.0520935058593800,377.1789855957031000,15.9410896301269530,33.2364501953125000,16,3,50,83,56,15683,56470
1349803847,8892,503.9200134277344000,16.0690994262695300,36.1906013488769500,213.4035949707031200,372.8377990722656000,16.0750007629394530,33.0464706420898440,15,3,48,82,56,15682,28027
1349803962,8893,493.0700073242187500,16.1814994812011720,36.2130012512207000,214.8168029785156200,369.1969909667969000,16.1872406005859380,32.9186897277832000,15,3,48,82,56,15682,29526
1349804077,8894,482.2500000000000000,16.4020996093750000,36.2550010681152340,218.1443939208984400,361.7912902832031000,16.4153995513916000,32.6374511718750000,16,3,50,84,56,15682,718
1349804192,8893,471.2399902343750000,16.6222000122070300,36.2993011474609400,223.4533996582031200,354.6318969726562500,16.6357803344726560,32.2625389099121100,16,3,50,84,55,15682,30804
1349804305,8893,460.1099853515625000,16.7493000030517580,36.3247985839843750,226.5839996337890600,350.5198059082031000,16.7622795104980470,32.0472297668457000,16,3,48,85,54,15683,13547
1349804421,8893,448.5499877929687500,16.8689994812011720,36.3432998657226560,224.4996032714843800,345.9401855468750000,16.9030895233154300,32.0886192321777340,16,3,48,84,54,15682,46952
1349804524,8893,438.3299865722656000,16.9762992858886720,36.3596992492675800,225.2469940185547000,343.0006103515625000,16.9934406280517580,32.0103492736816400,15,3,50,84,54,15680,4465
1349804639,8892,427.1099853515625000,17.0872001647949220,36.3800010681152340,224.1949005126953000,339.0292968750000000,17.1154594421386720,32.0087890625000000,16,3,48,84,54,15680,49143
1349804754,8893,416.2900085449219000,17.1944007873535160,36.3981018066406250,227.7736053466797000,335.5653076171875000,17.2218608856201170,31.7819404602050780,16,3,50,86,54,15677,54679
1349804881,8893,404.6300048828125000,17.3124008178710940,36.4240989685058600,231.4505004882812500,332.1282958984375000,17.3273792266845700,31.5546302795410160,15,3,50,84,54,15676,43703
1349804958,8892,397.7099914550781000,17.3815994262695300,36.4393005371093750,232.9756927490234400,329.9031066894531000,17.3956909179687500,31.4507293701171880,16,3,50,84,54,15677,49601
1349805026,8893,391.6600036621094000,17.4743003845214840,36.4575996398925800,233.9340972900390600,326.9769897460937500,17.4854793548584000,31.3649692535400400,16,3,48,84,54,15678,42938
1349805103,8893,384.9500122070312500,17.5032997131347660,36.4623985290527340,234.7077026367187500,326.0676879882812500,17.5133800506591800,31.3157691955566400,16,3,50,85,53,15676,1988
1349805171,8893,379.0899963378906000,17.5505008697509770,36.4701004028320300,234.7185974121093800,324.5739135742187500,17.5592098236084000,31.2952308654785160,16,3,50,84,54,15677,33407
1349805236,8893,373.5100097656250000,17.6019001007080080,36.4781990051269500,234.7032928466797000,322.8711853027344000,17.6114501953125000,31.2729091644287100,16,3,48,84,54,15677,45140
1349805304,8894,367.7000122070312500,17.6721992492675780,36.4929008483886700,233.7342071533203000,320.3781127929687500,17.6879100799560550,31.2854404449462900,15,3,50,85,53,15677,46690
1349805381,8891,361.2099914550781000,17.7240009307861330,36.5031013488769500,233.3766021728515600,318.9182128906250000,17.7326793670654300,31.2828807830810550,15,3,49,85,54,15677,59869
1349805449,8892,355.3500061035156000,17.7472991943359380,36.5079002380371100,233.5680999755859400,317.9182128906250000,17.7633399963378900,31.2605094909667970,15,3,49,85,53,15676,32199
1349805514,8893,349.6799926757812500,17.7847003936767580,36.5141983032226560,234.0341033935547000,316.8919067382812500,17.7947998046875000,31.2243995666503900,16,3,50,86,54,15677,61723
1349805582,8892,343.6900024414062500,17.8346004486084000,36.5223999023437500,234.3466033935547000,315.2442016601562500,17.8453197479248050,31.1874294281005860,15,3,50,86,53,15678,4307
1349805659,8893,336.8900146484375000,17.8764991760253900,36.5294990539550800,234.6508941650390600,313.8146057128906000,17.8891391754150400,31.1537895202636720,15,3,50,86,54,15675,5997
1349805727,8893,330.8399963378906000,17.9004001617431640,36.5320014953613300,235.4098052978515600,313.0793151855469000,17.9116802215576170,31.1077003479003900,15,3,48,85,53,15678,20897
1349805792,8893,325.1099853515625000,17.9242992401123050,36.5354995727539060,235.5126037597656200,312.2684936523437500,17.9365291595459000,31.0921192169189450,16,3,50,84,54,15676,40387
1349805860,8892,319.2300109863281000,17.9433994293212900,36.5353012084960940,235.7568969726562500,311.5354919433594000,17.9589900970459000,31.0705699920654300,16,3,50,86,54,15676,6093
1349805925,8892,313.7200012207031000,17.9764995574951170,36.5420989990234400,235.7149963378906200,310.6516113281250000,17.9860801696777340,31.0609703063964840,11,3,50,84,54,15675,18977
1349806005,8893,307.0899963378906000,18.0067996978759770,36.5466003417968750,235.7357025146484400,309.7105102539062500,18.0149097442626950,31.0471706390380860,15,3,49,84,54,15675,20724
1349806070,8893,301.8099975585937500,18.0496006011962900,36.5530014038085940,235.3011932373047000,308.2643127441406000,18.0592308044433600,31.0484504699707030,16,3,50,86,53,15674,40563
1349806150,8893,295.3999938964844000,18.0960998535156250,36.5601005554199200,234.8453063964843800,306.7774963378906000,18.1047706604003900,31.0502109527587900,16,3,50,86,53,15676,16602
1349806227,8894,289.3900146484375000,18.1123008728027340,36.5633010864257800,234.7050018310547000,306.2125854492187500,18.1220798492431640,31.0494003295898440,15,3,50,87,54,15674,35223
1349806325,8893,281.3099975585937500,18.1569995880126950,36.5675010681152340,234.4678955078125000,304.7258911132812500,18.1676197052001950,31.0409507751464840,15,3,49,86,54,15674,47340
1349806413,8892,273.0799865722656000,18.2173995971679700,36.5717010498046900,233.9111938476562500,302.8479003906250000,18.2251491546630860,31.0424900054931640,16,3,49,87,52,15674,29174
1349806481,8893,266.3500061035156000,18.2187995910644530,36.5528984069824200,233.5167999267578000,302.8265075683594000,18.2257995605468750,31.0607795715332030,15,3,49,84,54,15674,47010
1349806546,8891,259.9599914550781000,18.2625999450683600,36.5598983764648440,232.7599029541015600,301.0519104003906000,18.2801494598388670,31.0734291076660160,15,3,50,86,53,15672,21408
1349806614,8893,253.3099975585937500,18.3528003692626950,36.5764999389648440,230.5832977294922000,298.2850036621094000,18.3648700714111330,31.1414394378662100,16,3,50,86,53,15671,49666
1349806679,8893,246.9700012207031200,18.3878993988037100,36.5750999450683600,229.5072021484375000,297.3200988769531000,18.3944091796875000,31.1806602478027340,16,3,50,85,53,15670,22338
1349806747,8893,240.4299926757812500,18.4190998077392580,36.5700988769531250,228.2238006591797000,296.7760009765625000,18.4110698699951170,31.2358798980712900,16,3,50,87,54,15670,57756
1349806812,8892,234.1699981689453000,18.4391002655029300,36.5573005676269500,225.4212951660156200,295.1470947265625000,18.4609394073486330,31.3525104522705080,16,3,50,86,52,15670,54432
1349806880,8893,227.6399993896484400,18.5233001708984380,36.5602989196777340,224.0809020996093800,292.8139953613281000,18.5323505401611330,31.3879909515380860,15,3,50,86,53,15670,47648
1349806945,8892,221.3600006103515600,18.5627994537353500,36.5606002807617200,224.6876068115234400,291.4934082031250000,18.5727691650390620,31.3401603698730470,16,3,50,86,54,15670,25454
1349807013,8892,214.6399993896484400,18.5681991577148440,36.5351982116699200,231.0294952392578000,290.9971008300781000,18.5879592895507800,31.0230693817138670,15,3,50,86,52,15668,61770
1349807078,8893,208.2899932861328000,18.7000999450683600,36.5595016479492200,231.2691040039062500,287.0992126464844000,18.7072391510009770,30.9597702026367200,16,3,50,84,54,15670,44054
1349807146,8893,201.6999969482422000,18.7248001098632800,36.5536994934082000,231.7760009765625000,285.9888916015625000,18.7412109375000000,30.9209709167480470,15,3,48,82,54,15670,21467
